ネオワイズ彗星

C/2015 X8 ( NEOWISE )

English version
Home page
Updated on May 29, 2016

---------------------------------------------------------------------

・ プロフィール

発見日 2015年12月14日
発見光度 16等
発見者 Near-Earth Object Wide-field Infrared Survey Explorer

・ 写真集

・ 軌道要素

Epoch 2015 Oct. 25.0 TT = JDT 2457320.5
T 2015 Oct. 23.12095 TT                                 MPCW
q   1.1901434            (2000.0)            P               Q
n   0.01142227     Peri.   20.38400     -0.98076353     +0.17781690
a  19.5269510      Node   191.10291     +0.06130408     +0.67223503
e   0.9390512      Incl.  155.28225     +0.18532326     +0.71866627
P  86.29
From 92 observations 2015 Dec. 14-2016 Jan. 24, mean residual 0".5.

・ 星図

・ 光度変化

        m1 = 10.0 + 5 logΔ + 20.0 log r

---------------------------------------------------------------------

軌道要素はM.P.E.C. 2016-K18に掲載されたものです。
星図はステラナビゲータ Ver.8 (アストロアーツ) で作成したものです。
光度グラフはComet for Windowsで作成したものです。

---------------------------------------------------------------------

Copyright(C) Seiichi Yoshida (comet@aerith.net). All rights reserved.